EN

Hourly Weather Alvinopolis

Today, 19 January, Tuesday

Time Temperature Precipitation Wind Pressure Humidity
00:00 +16°C° 0 mm 0 mps 709 mmHg 90%
01:00 +16°C° 0 mm 0 mps 709 mmHg 90%
02:00 +16°C° 0 mm 0 mps 709 mmHg 91%
03:00 +16°C° 0 mm 0 mps 708 mmHg 92%
04:00 +16°C° 0 mm 0 mps 709 mmHg 92%
05:00 +16°C° 0 mm 0 mps 709 mmHg 92%
06:00 +16°C° 0 mm 0 mps 709 mmHg 92%
07:00 +21°C° 0 mm 1 mps 710 mmHg 86%
08:00 +23°C° 0 mm 1 mps 710 mmHg 80%
09:00 +25°C° 0 mm 2 mps 711 mmHg 75%
10:00 +27°C° 0 mm 2 mps 711 mmHg 71%
11:00 +28°C° 0 mm 2 mps 711 mmHg 67%
12:00 +29°C° 0 mm 2 mps 711 mmHg 63%
13:00 +29°C° 0 mm 2 mps 710 mmHg 63%
14:00 +29°C° 0 mm 3 mps 710 mmHg 63%
15:00 +29°C° 0 mm 3 mps 709 mmHg 64%
16:00 +28°C° 0 mm 2 mps 709 mmHg 70%
17:00 +27°C° 0 mm 2 mps 709 mmHg 77%
18:00 +26°C° 0 mm 2 mps 708 mmHg 84%
19:00 +24°C° 0 mm 1 mps 709 mmHg 87%
20:00 +23°C° 0 mm 1 mps 709 mmHg 90%
21:00 +19°C° 0 mm 0 mps 709 mmHg 93%
22:00 +19°C° 0 mm 0 mps 710 mmHg 93%
23:00 +18°C° 0 mm 0 mps 710 mmHg 93%

Tomorrow, 20 January, Wednesday

Time Temperature Precipitation Wind Pressure Humidity
00:00 +18°C° 0 mm 0 mps 710 mmHg 93%
01:00 +18°C° 0 mm 0 mps 710 mmHg 94%
02:00 +19°C° 0 mm 1 mps 709 mmHg 95%
03:00 +19°C° 0 mm 1 mps 709 mmHg 95%
04:00 +17°C° 0 mm 0 mps 710 mmHg 96%
05:00 +17°C° 0 mm 0 mps 710 mmHg 96%
06:00 +16°C° 0 mm 0 mps 710 mmHg 96%
07:00 +21°C° 0 mm 1 mps 711 mmHg 87%
08:00 +23°C° 0 mm 1 mps 711 mmHg 79%
09:00 +25°C° 0 mm 2 mps 712 mmHg 70%
10:00 +26°C° 0 mm 2 mps 711 mmHg 64%
11:00 +27°C° 0 mm 2 mps 711 mmHg 59%
12:00 +28°C° 0 mm 2 mps 711 mmHg 53%
13:00 +28°C° 0 mm 2 mps 710 mmHg 54%
14:00 +29°C° 0 mm 2 mps 710 mmHg 54%
15:00 +29°C° 0 mm 2 mps 709 mmHg 54%
16:00 +27°C° 0 mm 2 mps 709 mmHg 62%
17:00 +26°C° 0 mm 1 mps 709 mmHg 69%
18:00 +25°C° 0 mm 1 mps 708 mmHg 77%
19:00 +24°C° 0 mm 1 mps 709 mmHg 80%
20:00 +20°C° 0 mm 0 mps 709 mmHg 84%
21:00 +19°C° 0 mm 0 mps 709 mmHg 88%
22:00 +18°C° 0 mm 0 mps 709 mmHg 89%
23:00 +20°C° 0 mm 1 mps 710 mmHg 90%

Day after tomorrow, 21 January, Thursday

Time Temperature Precipitation Wind Pressure Humidity
00:00 +20°C° 0 mm 1 mps 710 mmHg 91%
01:00 +20°C° 0 mm 1 mps 710 mmHg 93%
02:00 +17°C° 0 mm 0 mps 709 mmHg 94%
03:00 +17°C° 0 mm 0 mps 709 mmHg 96%
04:00 +17°C° 0 mm 0 mps 710 mmHg 97%
05:00 +17°C° 0 mm 0 mps 710 mmHg 97%
06:00 +17°C° 0 mm 0 mps 710 mmHg 97%
07:00 +19°C° 0 mm 0 mps 711 mmHg 89%
08:00 +23°C° 0 mm 1 mps 711 mmHg 81%
09:00 +25°C° 0 mm 1 mps 712 mmHg 73%
10:00 +26°C° 0 mm 2 mps 712 mmHg 69%
11:00 +27°C° 0 mm 2 mps 711 mmHg 65%
12:00 +28°C° 0 mm 2 mps 711 mmHg 61%
13:00 +28°C° 0 mm 2 mps 711 mmHg 60%
14:00 +29°C° 0 mm 2 mps 710 mmHg 59%
15:00 +29°C° 0 mm 2 mps 710 mmHg 57%
16:00 +28°C° 0 mm 2 mps 710 mmHg 64%
17:00 +26°C° 0 mm 1 mps 709 mmHg 72%
18:00 +25°C° 0 mm 1 mps 709 mmHg 79%
19:00 +24°C° 0 mm 1 mps 710 mmHg 83%
20:00 +20°C° 0 mm 0 mps 710 mmHg 88%
21:00 +19°C° 0 mm 0 mps 710 mmHg 92%
22:00 +19°C° 0 mm 0 mps 710 mmHg 93%
23:00 +21°C° 0 mm 1 mps 711 mmHg 93%

22 January, Friday

Time Temperature Precipitation Wind Pressure Humidity
00:00 +20°C° 0 mm 1 mps 711 mmHg 94%
01:00 +20°C° 0 mm 1 mps 711 mmHg 95%
02:00 +20°C° 0 mm 1 mps 710 mmHg 96%
03:00 +17°C° 0 mm 0 mps 710 mmHg 97%
04:00 +17°C° 0 mm 0 mps 711 mmHg 97%
05:00 +17°C° 0 mm 0 mps 711 mmHg 97%
06:00 +17°C° 0 mm 0 mps 711 mmHg 97%
07:00 +19°C° 0 mm 0 mps 712 mmHg 90%
08:00 +21°C° 0 mm 0 mps 713 mmHg 83%
09:00 +24°C° 0 mm 0 mps 713 mmHg 76%
10:00 +27°C° 0 mm 1 mps 713 mmHg 70%
11:00 +28°C° 0 mm 1 mps 713 mmHg 63%
12:00 +29°C° 0 mm 2 mps 713 mmHg 56%
13:00 +29°C° 0 mm 2 mps 712 mmHg 56%
14:00 +29°C° 0 mm 2 mps 711 mmHg 55%
15:00 +29°C° 0 mm 2 mps 711 mmHg 55%
16:00 +28°C° 0 mm 2 mps 711 mmHg 61%
17:00 +26°C° 0 mm 1 mps 711 mmHg 68%
18:00 +25°C° 0 mm 1 mps 710 mmHg 75%
19:00 +24°C° 0 mm 1 mps 711 mmHg 80%
20:00 +22°C° 0 mm 1 mps 711 mmHg 84%
21:00 +19°C° 0 mm 0 mps 712 mmHg 89%
22:00 +19°C° 0 mm 0 mps 712 mmHg 90%
23:00 +19°C° 0 mm 0 mps 712 mmHg 91%

23 January, Saturday

Time Temperature Precipitation Wind Pressure Humidity
00:00 +20°C° 0 mm 1 mps 712 mmHg 93%
01:00 +18°C° 0 mm 0 mps 711 mmHg 94%
02:00 +18°C° 0 mm 0 mps 711 mmHg 94%
03:00 +18°C° 0 mm 0 mps 711 mmHg 95%
04:00 +17°C° 0 mm 0 mps 711 mmHg 96%
05:00 +17°C° 0 mm 0 mps 711 mmHg 97%
06:00 +17°C° 0 mm 0 mps 711 mmHg 97%
07:00 +21°C° 0 mm 1 mps 712 mmHg 89%
08:00 +23°C° 0 mm 1 mps 712 mmHg 81%
09:00 +25°C° 0 mm 2 mps 713 mmHg 73%
10:00 +26°C° 0 mm 2 mps 713 mmHg 68%
11:00 +27°C° 0 mm 2 mps 712 mmHg 63%
12:00 +28°C° 0 mm 2 mps 712 mmHg 58%
13:00 +29°C° 0 mm 2 mps 712 mmHg 57%
14:00 +29°C° 0 mm 2 mps 711 mmHg 56%
15:00 +29°C° 0 mm 2 mps 710 mmHg 55%
16:00 +28°C° 0 mm 2 mps 710 mmHg 62%
17:00 +26°C° 0 mm 2 mps 710 mmHg 69%
18:00 +25°C° 0 mm 1 mps 710 mmHg 76%
19:00 +24°C° 0.1 mm 1 mps 710 mmHg 80%
20:00 +22°C° 0.1 mm 1 mps 710 mmHg 84%
21:00 +19°C° 0.1 mm 0 mps 711 mmHg 88%
22:00 +19°C° 0 mm 0 mps 711 mmHg 89%
23:00 +18°C° 0 mm 0 mps 711 mmHg 91%

24 January, Sunday

Time Temperature Precipitation Wind Pressure Humidity
00:00 +18°C° 0 mm 0 mps 711 mmHg 93%
01:00 +18°C° 0 mm 0 mps 711 mmHg 94%
02:00 +17°C° 0 mm 0 mps 710 mmHg 95%
03:00 +17°C° 0 mm 0 mps 710 mmHg 96%
04:00 +17°C° 0 mm 0 mps 710 mmHg 96%
05:00 +16°C° 0 mm 0 mps 710 mmHg 97%
06:00 +16°C° 0 mm 0 mps 710 mmHg 97%
07:00 +19°C° 0 mm 0 mps 711 mmHg 87%
08:00 +23°C° 0 mm 1 mps 712 mmHg 78%
09:00 +26°C° 0 mm 1 mps 712 mmHg 68%
10:00 +27°C° 0 mm 1 mps 712 mmHg 63%
11:00 +27°C° 0 mm 2 mps 711 mmHg 58%
12:00 +28°C° 0 mm 2 mps 711 mmHg 54%
13:00 +29°C° 0 mm 2 mps 710 mmHg 54%
14:00 +29°C° 0 mm 2 mps 710 mmHg 54%
15:00 +29°C° 0 mm 2 mps 709 mmHg 54%
16:00 +28°C° 0 mm 2 mps 709 mmHg 61%
17:00 +27°C° 0 mm 2 mps 709 mmHg 69%
18:00 +25°C° 0 mm 1 mps 709 mmHg 77%
19:00 +24°C° 0 mm 1 mps 709 mmHg 82%
20:00 +22°C° 0 mm 1 mps 709 mmHg 87%
21:00 +21°C° 0 mm 1 mps 709 mmHg 92%
22:00 +21°C° 0 mm 1 mps 709 mmHg 93%
23:00 +18°C° 0 mm 0 mps 709 mmHg 94%
Show more